Time,TemperatureF,DewpointF,PressureIn,WindDirection,WindDirectionDegrees,WindSpeedMPH,WindSpeedGustMPH,Humidity,HourlyPrecipIn,Conditions,Clouds,dailyrainin,SolarRadiationWatts/m^2,SoftwareType,DateUTC
2013-03-01 00:01:00,19.0,4.0,-100.00,South,180,0.0,5.0,51,0.00,,,0.00,0.000000,,2013-03-01 07:01:00,
2013-03-01 00:32:00,18.0,3.0,-100.00,West,261,0.0,4.0,52,0.00,,,0.00,0.000000,,2013-03-01 07:32:00,
2013-03-01 00:42:00,18.0,3.0,-100.00,West,261,0.0,4.0,52,0.00,,,0.00,0.000000,,2013-03-01 07:42:00,
2013-03-01 00:52:00,18.0,3.0,-100.00,West,261,0.0,4.0,52,0.00,,,0.00,0.000000,,2013-03-01 07:52:00,
2013-03-01 01:01:00,18.0,3.0,-100.00,West,261,0.0,4.0,52,0.00,,,0.00,0.000000,,2013-03-01 08:01:00,
2013-03-01 01:22:00,16.0,4.0,-100.00,North,11,0.0,3.0,59,0.00,,,0.00,0.000000,,2013-03-01 08:22:00,
2013-03-01 01:43:00,16.0,4.0,-100.00,North,11,0.0,3.0,59,0.00,,,0.00,0.000000,,2013-03-01 08:43:00,
2013-03-01 01:53:00,16.0,4.0,-100.00,North,11,0.0,3.0,59,0.00,,,0.00,0.000000,,2013-03-01 08:53:00,
2013-03-01 02:01:00,16.0,4.0,-100.00,North,11,0.0,3.0,59,0.00,,,0.00,0.000000,,2013-03-01 09:01:00,
2013-03-01 02:22:00,17.0,9.0,-100.00,WSW,255,0.0,3.0,69,-99.99,,,0.00,0.000000,,2013-03-01 09:22:00,
2013-03-01 02:32:00,17.0,9.0,-100.00,WSW,255,0.0,3.0,69,-99.99,,,0.00,0.000000,,2013-03-01 09:32:00,
2013-03-01 02:42:00,17.0,9.0,-100.00,WSW,255,0.0,3.0,69,-99.99,,,0.00,0.000000,,2013-03-01 09:42:00,
2013-03-01 02:52:00,17.0,9.0,-100.00,WSW,255,0.0,3.0,69,-99.99,,,0.00,0.000000,,2013-03-01 09:52:00,
2013-03-01 03:01:00,17.0,9.0,-100.00,WSW,255,0.0,3.0,69,-99.99,,,0.00,0.000000,,2013-03-01 10:01:00,
2013-03-01 03:32:00,20.0,8.0,-100.00,SE,127,4.0,5.0,59,0.00,,,0.00,0.000000,,2013-03-01 10:32:00,
2013-03-01 03:42:00,20.0,8.0,-100.00,SE,127,4.0,5.0,59,0.00,,,0.00,0.000000,,2013-03-01 10:42:00,
2013-03-01 03:52:00,20.0,8.0,-100.00,SE,127,4.0,5.0,59,0.00,,,0.00,0.000000,,2013-03-01 10:52:00,
2013-03-01 04:01:00,20.0,8.0,-100.00,SE,127,4.0,5.0,59,0.00,,,0.00,0.000000,,2013-03-01 11:01:00,
2013-03-01 04:32:00,29.0,4.0,-100.00,East,98,5.0,12.0,33,0.00,,,0.00,0.000000,,2013-03-01 11:32:00,
2013-03-01 05:32:00,29.0,7.0,-100.00,East,84,6.0,11.0,39,0.00,,,0.00,0.000000,,2013-03-01 12:32:00,
2013-03-01 05:42:00,29.0,7.0,-100.00,East,84,6.0,11.0,39,0.00,,,0.00,0.000000,,2013-03-01 12:42:00,
2013-03-01 05:52:00,29.0,7.0,-100.00,East,84,6.0,11.0,39,0.00,,,0.00,0.000000,,2013-03-01 12:52:00,
2013-03-01 06:01:00,29.0,7.0,-100.00,East,84,6.0,11.0,39,0.00,,,0.00,0.000000,,2013-03-01 13:01:00,
2013-03-01 06:32:00,23.0,9.0,-100.00,ESE,102,4.0,11.0,55,0.00,,,0.00,0.000000,,2013-03-01 13:32:00,
2013-03-01 06:42:00,23.0,9.0,-100.00,ESE,102,4.0,11.0,55,0.00,,,0.00,0.000000,,2013-03-01 13:42:00,
2013-03-01 06:52:00,23.0,9.0,-100.00,ESE,102,4.0,11.0,55,0.00,,,0.00,0.000000,,2013-03-01 13:52:00,
2013-03-01 07:01:00,23.0,9.0,-100.00,ESE,102,4.0,11.0,55,0.00,,,0.00,0.000000,,2013-03-01 14:01:00,
2013-03-01 07:32:00,23.0,10.0,-100.00,SE,139,2.0,9.0,56,0.00,,,0.00,1.000000,,2013-03-01 14:32:00,
2013-03-01 07:42:00,23.0,10.0,-100.00,SE,139,2.0,9.0,56,0.00,,,0.00,1.000000,,2013-03-01 14:42:00,
2013-03-01 07:52:00,23.0,10.0,-100.00,SE,139,2.0,9.0,56,0.00,,,0.00,1.000000,,2013-03-01 14:52:00,
2013-03-01 08:01:00,23.0,10.0,-100.00,SE,139,2.0,9.0,56,0.00,,,0.00,1.000000,,2013-03-01 15:01:00,
2013-03-01 08:21:00,31.0,13.0,-100.00,South,170,0.0,8.0,47,0.00,,,0.00,95.000000,,2013-03-01 15:21:00,
2013-03-01 08:32:00,31.0,13.0,-100.00,South,170,0.0,8.0,47,0.00,,,0.00,95.000000,,2013-03-01 15:32:00,
2013-03-01 08:42:00,31.0,13.0,-100.00,South,170,0.0,8.0,47,0.00,,,0.00,95.000000,,2013-03-01 15:42:00,
2013-03-01 08:52:00,31.0,13.0,-100.00,South,170,0.0,8.0,47,0.00,,,0.00,95.000000,,2013-03-01 15:52:00,
2013-03-01 09:01:00,31.0,13.0,-100.00,South,170,0.0,8.0,47,0.00,,,0.00,95.000000,,2013-03-01 16:01:00,
2013-03-01 09:32:00,41.0,17.0,-100.00,North,8,3.0,5.0,37,0.00,,,0.00,323.000000,,2013-03-01 16:32:00,
2013-03-01 10:01:00,41.0,17.0,-100.00,North,8,3.0,5.0,37,0.00,,,0.00,323.000000,,2013-03-01 17:01:00,
2013-03-01 10:32:00,42.0,16.0,-100.00,NE,40,11.0,17.0,34,0.00,,,0.00,539.000000,,2013-03-01 17:32:00,
2013-03-01 10:42:00,42.0,16.0,-100.00,NE,40,11.0,17.0,34,0.00,,,0.00,539.000000,,2013-03-01 17:42:00,
2013-03-01 10:52:00,42.0,16.0,-100.00,NE,40,11.0,17.0,34,0.00,,,0.00,539.000000,,2013-03-01 17:52:00,
2013-03-01 11:01:00,42.0,16.0,-100.00,NE,40,11.0,17.0,34,0.00,,,0.00,539.000000,,2013-03-01 18:01:00,
2013-03-01 11:32:00,46.0,19.0,-100.00,NNE,27,12.0,19.0,34,0.00,,,0.00,689.000000,,2013-03-01 18:32:00,
2013-03-01 11:42:00,46.0,19.0,-100.00,NNE,27,12.0,19.0,34,0.00,,,0.00,689.000000,,2013-03-01 18:42:00,
2013-03-01 11:52:00,46.0,19.0,-100.00,NNE,27,12.0,19.0,34,0.00,,,0.00,689.000000,,2013-03-01 18:52:00,
2013-03-01 12:01:00,46.0,19.0,-100.00,NNE,27,12.0,19.0,34,0.00,,,0.00,689.000000,,2013-03-01 19:01:00,
2013-03-01 12:21:00,46.0,19.0,-100.00,NNE,33,13.0,18.0,34,0.00,,,0.00,827.000000,,2013-03-01 19:21:00,
2013-03-01 12:32:00,46.0,19.0,-100.00,NNE,33,13.0,18.0,34,0.00,,,0.00,827.000000,,2013-03-01 19:32:00,
2013-03-01 12:42:00,46.0,19.0,-100.00,NNE,33,13.0,18.0,34,0.00,,,0.00,827.000000,,2013-03-01 19:42:00,
2013-03-01 12:52:00,46.0,19.0,-100.00,NNE,33,13.0,18.0,34,0.00,,,0.00,827.000000,,2013-03-01 19:52:00,
2013-03-01 13:01:00,46.0,19.0,-100.00,NNE,33,13.0,18.0,34,0.00,,,0.00,827.000000,,2013-03-01 20:01:00,
2013-03-01 13:22:00,49.0,20.0,-100.00,NE,34,11.0,21.0,32,0.00,,,0.00,895.000000,,2013-03-01 20:22:00,
2013-03-01 13:32:00,49.0,20.0,-100.00,NE,34,11.0,21.0,32,0.00,,,0.00,895.000000,,2013-03-01 20:32:00,
2013-03-01 13:42:00,49.0,20.0,-100.00,NE,34,11.0,21.0,32,0.00,,,0.00,895.000000,,2013-03-01 20:42:00,
2013-03-01 13:52:00,49.0,20.0,-100.00,NE,34,11.0,21.0,32,0.00,,,0.00,895.000000,,2013-03-01 20:52:00,
2013-03-01 14:01:00,49.0,20.0,-100.00,NE,34,11.0,21.0,32,0.00,,,0.00,895.000000,,2013-03-01 21:01:00,
2013-03-01 14:21:00,49.0,19.0,-100.00,NE,38,11.0,23.0,30,0.00,,,-99.99,865.000000,,2013-03-01 21:21:00,
2013-03-01 14:32:00,49.0,19.0,-100.00,NE,38,11.0,23.0,30,0.00,,,-99.99,865.000000,,2013-03-01 21:32:00,
2013-03-01 14:42:00,49.0,19.0,-100.00,NE,38,11.0,23.0,30,0.00,,,-99.99,865.000000,,2013-03-01 21:42:00,
2013-03-01 14:52:00,49.0,19.0,-100.00,NE,38,11.0,23.0,30,0.00,,,-99.99,865.000000,,2013-03-01 21:52:00,
2013-03-01 15:01:00,49.0,19.0,-100.00,NE,38,11.0,23.0,30,0.00,,,-99.99,865.000000,,2013-03-01 22:01:00,
2013-03-01 15:32:00,48.0,20.0,-100.00,NNE,19,13.0,24.0,32,0.00,,,0.00,766.000000,,2013-03-01 22:32:00,
2013-03-01 15:42:00,48.0,20.0,-100.00,NNE,19,13.0,24.0,32,0.00,,,0.00,766.000000,,2013-03-01 22:42:00,
2013-03-01 15:52:00,48.0,20.0,-100.00,NNE,19,13.0,24.0,32,0.00,,,0.00,766.000000,,2013-03-01 22:52:00,
2013-03-01 16:01:00,48.0,20.0,-100.00,NNE,19,13.0,24.0,32,0.00,,,0.00,766.000000,,2013-03-01 23:01:00,
2013-03-01 16:32:00,50.0,19.0,-100.00,NNE,33,8.0,20.0,29,0.00,,,0.00,605.000000,,2013-03-01 23:32:00,
2013-03-01 16:42:00,50.0,19.0,-100.00,NNE,33,8.0,20.0,29,0.00,,,0.00,605.000000,,2013-03-01 23:42:00,
2013-03-01 16:52:00,50.0,19.0,-100.00,NNE,33,8.0,20.0,29,0.00,,,0.00,605.000000,,2013-03-01 23:52:00,
2013-03-01 17:01:00,50.0,19.0,-100.00,NNE,33,8.0,20.0,29,0.00,,,0.00,605.000000,,2013-03-02 00:01:00,
2013-03-01 17:32:00,49.0,18.0,-100.00,ENE,63,8.0,15.0,29,0.00,,,0.00,393.000000,,2013-03-02 00:32:00,
2013-03-01 17:42:00,49.0,18.0,-100.00,ENE,63,8.0,15.0,29,0.00,,,0.00,393.000000,,2013-03-02 00:42:00,
2013-03-01 17:52:00,49.0,18.0,-100.00,ENE,63,8.0,15.0,29,0.00,,,0.00,393.000000,,2013-03-02 00:52:00,
2013-03-01 18:01:00,49.0,18.0,-100.00,ENE,63,8.0,15.0,29,0.00,,,0.00,393.000000,,2013-03-02 01:01:00,
2013-03-01 18:32:00,46.0,19.0,-100.00,NE,41,5.0,14.0,33,0.00,,,0.00,70.000000,,2013-03-02 01:32:00,
2013-03-01 18:42:00,46.0,19.0,-100.00,NE,41,5.0,14.0,33,0.00,,,0.00,70.000000,,2013-03-02 01:42:00,
2013-03-01 18:52:00,46.0,19.0,-100.00,NE,41,5.0,14.0,33,0.00,,,0.00,70.000000,,2013-03-02 01:52:00,
2013-03-01 19:01:00,46.0,19.0,-100.00,NE,41,5.0,14.0,33,0.00,,,0.00,70.000000,,2013-03-02 02:01:00,
2013-03-01 19:32:00,37.0,22.0,-100.00,SSE,156,4.0,9.0,54,0.00,,,0.00,3.000000,,2013-03-02 02:32:00,
2013-03-01 19:42:00,37.0,22.0,-100.00,SSE,156,4.0,9.0,54,0.00,,,0.00,3.000000,,2013-03-02 02:42:00,
2013-03-01 19:52:00,37.0,22.0,-100.00,SSE,156,4.0,9.0,54,0.00,,,0.00,3.000000,,2013-03-02 02:52:00,
2013-03-01 20:01:00,37.0,22.0,-100.00,SSE,156,4.0,9.0,54,0.00,,,0.00,3.000000,,2013-03-02 03:01:00,
2013-03-01 20:32:00,34.0,20.0,-100.00,South,178,1.0,6.0,56,0.00,,,0.00,0.000000,,2013-03-02 03:32:00,
2013-03-01 20:42:00,34.0,20.0,-100.00,South,178,1.0,6.0,56,0.00,,,0.00,0.000000,,2013-03-02 03:42:00,
2013-03-01 20:52:00,34.0,20.0,-100.00,South,178,1.0,6.0,56,0.00,,,0.00,0.000000,,2013-03-02 03:52:00,
2013-03-01 21:01:00,34.0,20.0,-100.00,South,178,1.0,6.0,56,0.00,,,0.00,0.000000,,2013-03-02 04:01:00,
2013-03-01 21:32:00,29.0,19.0,-100.00,South,173,2.0,7.0,65,0.00,,,0.00,0.000000,,2013-03-02 04:32:00,
2013-03-01 21:42:00,29.0,19.0,-100.00,South,173,2.0,7.0,65,0.00,,,0.00,0.000000,,2013-03-02 04:42:00,
2013-03-01 21:52:00,29.0,19.0,-100.00,South,173,2.0,7.0,65,0.00,,,0.00,0.000000,,2013-03-02 04:52:00,
2013-03-01 22:01:00,29.0,19.0,-100.00,South,173,2.0,7.0,65,0.00,,,0.00,0.000000,,2013-03-02 05:01:00,
2013-03-01 22:23:00,30.0,19.0,-100.00,WSW,255,0.0,5.0,64,0.00,,,0.00,0.000000,,2013-03-02 05:23:00,
2013-03-01 22:32:00,30.0,19.0,-100.00,WSW,255,0.0,5.0,64,0.00,,,0.00,0.000000,,2013-03-02 05:32:00,
2013-03-01 22:42:00,30.0,19.0,-100.00,WSW,255,0.0,5.0,64,0.00,,,0.00,0.000000,,2013-03-02 05:42:00,
2013-03-01 22:52:00,30.0,19.0,-100.00,WSW,255,0.0,5.0,64,0.00,,,0.00,0.000000,,2013-03-02 05:52:00,
2013-03-01 23:01:00,30.0,19.0,-100.00,WSW,255,0.0,5.0,64,0.00,,,0.00,0.000000,,2013-03-02 06:01:00,
2013-03-01 23:32:00,29.0,20.0,-100.00,SW,224,0.0,4.0,68,0.00,,,0.00,0.000000,,2013-03-02 06:32:00,
2013-03-01 23:42:00,29.0,20.0,-100.00,SW,224,0.0,4.0,68,0.00,,,0.00,0.000000,,2013-03-02 06:42:00,
2013-03-01 23:52:00,29.0,20.0,-100.00,SW,224,0.0,4.0,68,0.00,,,0.00,0.000000,,2013-03-02 06:52:00,